Voltar ao catálogo

STARLINK-6233

AtivoComunicaçõesVLEO
NORAD 57229·PAYLOAD·🇺🇸 United States

Lançado Jul 7, 2023 de Vandenberg Space Force Base

Loading…

Próximas Passagens (próximas 24 horas)

TLE

AtualizadoSource: CelesTrak SupGP

Época: Sep 14, 2026, 20:47 UTC

1 57229C 23094M   26257.86645833  .00057677  00000+0  20879-2 0  2574
2 57229  43.0049  42.6237 0001917 277.9593 111.6141 15.27566697    11

Acompanhe STARLINK-6233 em tempo real com AllMySat

Download on the App Store